Location: Betz
(49.1556°N, 2.9558°E)
Time: 09:18:10
(UTC+00:00)

Cosmos 2219 - Pass Details

Date: 18 September 2019
Orbit: 834 x 860 km, 71.1° (Epoch: 18 October)

Event Time Altitude Azimuth Distance (km) Brightness Sun altitude
Rises 19:01:34 0° 182° (S) 3,420 6.2 -11.4°
Reaches altitude 10° 19:04:08 10° 175° (S) 2,489 5.4 -11.8°
Maximum altitude 19:09:25 40° 108° (ESE) 1,249 3.6 -12.7°
Drops below altitude 10° 19:14:44 10° 40° (NE) 2,502 5.4 -13.5°
Sets 19:17:19 0° 34° (NNE) 3,441 6.2 -13.9°
